Theta_e
303 303 303 303 303 303 303 304 306 308 311 311 308 310 311 312 312 313 316 315 317 319 317 319 318 320 320 318 318 318 313 315 319 320 320 319 324 326 326 327 340 341 347 348 350
302 303 304 303 303 303 304 304 305 307 309 312 310 308 310 311 311 315 314 320 320 318 316 320 316 318 317 317 316 315 313 317 320 321 319 320 320 322 325 327 343 347 337 342 353
302 303 304 305 304 304 304 304 304 306 308 311 311 307 309 310 320 324 322 319 319 318 314 320 320 319 317 315 315 316 315 318 320 319 320 319 321 321 320 321 340 349 344 345 341
303 304 304 305 305 304 304 305 305 306 307 310 311 306 309 314 329 324 325 320 320 315 316 318 318 317 316 316 316 317 317 318 319 320 319 319 320 320 320 321 344 346 345 347 344
306 305 305 305 306 305 305 306 309 308 307 311 310 306 311 321 319 322 320 318 315 316 318 318 318 316 316 316 317 318 318 319 319 318 318 319 320 320 319 322 341 341 339 340 337
308 308 307 306 306 305 306 312 312 312 310 312 307 308 314 321 325 319 318 317 317 318 319 320 318 316 318 319 321 321 319 319 319 318 317 320 318 319 319 322 333 334 335 337 336
309 309 308 307 306 306 307 314 312 313 313 311 306 312 321 320 325 319 320 318 319 318 318 320 321 322 322 322 321 321 321 320 320 321 319 320 318 319 319 320 320 336 334 335 339
308 310 309 308 307 306 315 311 311 313 310 306 307 317 323 322 324 324 321 320 320 320 319 320 323 323 323 320 321 322 321 322 320 321 322 319 318 320 320 319 320 323 337 338 342
307 310 310 312 311 314 315 313 311 309 307 306 311 322 324 323 322 324 323 322 322 322 322 322 323 322 322 321 319 321 321 322 323 322 321 320 319 320 320 319 320 321 324 324 340
308 309 311 314 315 317 317 318 313 310 310 313 317 321 323 324 323 322 324 324 324 323 321 321 320 320 319 319 321 323 323 321 322 322 322 320 319 320 321 321 320 320 321 331 338
309 309 311 312 314 315 317 324 322 323 323 321 323 325 326 325 323 322 322 324 324 324 321 320 320 320 320 320 322 323 323 323 323 323 323 322 321 321 322 320 319 319 321 335 337
310 310 310 311 312 313 314 322 318 317 317 322 324 326 326 325 325 324 323 322 324 324 323 320 319 321 322 323 324 324 324 323 324 325 324 322 322 321 322 322 321 322 324 333 335
310 310 310 312 314 315 317 318 317 320 320 322 322 322 322 321 321 324 322 321 322 323 323 322 323 324 323 323 325 324 324 324 324 325 323 323 323 322 323 324 325 325 325 333 336
310 310 311 313 317 318 318 317 319 321 322 327 323 323 325 324 323 322 323 322 321 321 322 322 323 325 324 324 324 323 324 325 325 324 323 323 324 321 323 323 328 329 327 334 335
310 310 312 310 315 318 319 317 318 321 342 327 325 326 325 324 326 325 323 323 323 323 322 322 322 323 324 325 324 324 325 324 325 323 322 323 322 322 324 324 328 328 329 333 333
310 310 312 314 315 318 316 317 319 330 338 327 326 327 325 325 325 325 325 323 323 323 323 323 323 323 324 324 324 325 325 324 323 322 324 323 324 325 323 329 330 330 329 332 332
310 312 314 312 319 316 315 319 328 335 326 326 327 325 325 325 327 326 326 325 322 324 324 323 324 324 325 324 324 325 326 327 328 325 326 325 328 328 333 331 327 330 329 330 330
310 315 318 316 317 315 316 322 331 331 327 326 324 323 323 322 322 321 324 325 324 325 325 326 326 326 327 327 328 328 327 329 338 334 335 330 332 335 332 330 327 327 328 329 329
309 316 319 319 317 315 317 323 327 327 324 322 321 320 320 321 320 321 323 323 323 323 329 329 329 326 325 327 326 328 327 329 334 333 337 334 331 333 328 330 332 328 326 327 325
308 314 320 318 317 316 318 320 322 324 322 321 321 320 321 321 323 323 324 323 323 325 323 326 328 326 325 326 327 326 326 328 330 338 337 335 334 335 331 331 331 329 327 325 325
311 318 318 317 316 318 319 321 322 321 320 320 320 320 321 321 321 321 323 322 323 324 322 324 324 326 322 323 322 320 326 330 330 333 333 332 334 328 328 329 327 326 325 324 322
308 318 318 317 319 320 320 322 320 321 320 319 319 320 320 321 321 321 321 321 318 319 321 321 322 323 322 319 319 323 326 327 326 330 327 327 326 327 325 326 325 325 323 321 320
308 315 318 316 319 319 320 319 320 320 319 319 319 320 320 321 322 322 322 321 317 319 322 320 320 320 321 319 322 325 323 323 324 322 325 324 323 324 324 325 323 322 321 319 319
310 319 317 316 317 317 317 319 318 317 318 317 318 318 319 319 319 321 322 321 318 319 321 319 318 318 318 318 317 325 323 321 323 321 321 322 322 320 318 321 322 320 320 319 321
314 316 313 315 313 312 314 316 317 317 317 317 319 319 318 319 322 321 320 319 319 323 317 316 317 317 315 316 317 318 319 321 318 322 323 322 319 314 318 316 318 321 320 320 322
311 309 309 309 312 314 314 316 317 317 318 317 319 318 317 319 320 321 319 320 322 318 317 316 317 318 319 318 318 318 317 315 314 314 314 314 313 312 313 316 316 320 322 320 318
304 306 307 308 308 309 311 313 312 312 314 315 315 314 315 316 316 316 315 316 317 320 318 319 316 318 320 320 319 319 318 316 316 316 315 315 315 316 317 316 315 313 314 315 315
Wind_Speed
17 17 15 13 12 10 9 9 8 8 8 8 9 9 9 11 13 13 8 11 11 8 6 4 7 12 18 7 8 4 1 5 13 9 10 9 4 2 3 4 6 1 10 14 31
18 17 16 15 13 12 10 10 9 8 8 8 8 9 9 10 14 16 18 12 10 14 11 11 9 16 4 6 4 4 3 9 14 14 9 10 10 10 6 3 5 4 4 22 29
21 18 17 15 14 12 11 10 9 8 8 7 7 7 6 7 5 7 6 19 13 9 13 19 20 8 7 6 8 9 8 10 17 13 12 8 9 9 10 9 4 11 15 17 27
22 19 17 15 14 12 11 10 9 8 7 7 6 5 3 2 1 4 12 15 15 9 12 15 8 5 6 7 10 6 12 11 14 12 7 7 7 9 8 6 10 22 18 23 24
24 21 18 15 14 12 10 9 8 8 8 7 6 4 2 3 9 8 14 14 12 12 14 9 7 7 7 8 8 8 10 10 13 11 8 8 5 7 11 8 21 22 22 26 25
29 24 19 16 13 11 10 7 6 6 6 6 5 5 1 5 7 15 16 15 12 12 13 16 10 12 8 7 6 7 9 11 8 10 7 6 8 4 11 9 13 15 19 20 21
33 29 23 17 13 10 7 5 4 2 4 5 6 4 5 12 8 15 14 15 15 16 14 24 27 4 7 9 9 11 8 10 9 7 7 6 8 8 11 10 9 19 15 19 22
34 32 26 18 13 7 4 4 2 1 3 4 5 2 7 13 15 16 18 14 12 19 24 26 16 5 3 9 10 8 7 4 9 10 14 8 11 9 11 10 11 8 20 16 19
36 33 27 19 13 6 3 4 3 2 2 5 4 3 8 3 11 17 20 19 20 20 22 18 7 4 6 5 6 6 8 10 12 14 13 11 11 11 12 8 9 10 8 7 14
36 32 27 20 16 8 4 5 1 4 2 1 9 4 7 8 13 15 17 18 11 9 4 5 1 4 5 2 5 8 7 8 8 10 7 10 12 10 10 9 7 10 10 13 16
36 32 24 20 17 13 8 3 0 1 7 9 7 4 12 8 11 8 13 12 10 4 6 7 3 7 11 11 14 13 14 15 13 9 8 9 8 10 8 8 11 9 7 14 16
37 33 24 19 19 16 13 3 6 9 8 15 21 20 27 15 7 8 15 6 7 8 7 6 8 11 14 15 14 12 10 11 8 9 11 11 14 9 8 7 7 8 12 17 13
38 34 25 19 15 14 8 7 11 8 4 10 15 15 15 10 10 8 12 9 7 9 9 8 10 12 17 17 17 10 6 6 10 7 11 11 14 10 7 5 1 3 12 15 17
40 37 23 20 7 14 8 14 12 9 3 6 7 4 5 2 6 17 14 9 7 12 9 11 16 17 16 15 10 7 9 12 10 7 5 7 14 8 9 10 8 7 8 14 15
41 38 22 11 12 9 19 19 11 1 3 11 8 5 7 7 4 8 14 7 10 10 7 13 12 14 13 12 11 11 8 8 6 9 7 12 3 7 7 8 7 11 12 14 14
43 37 19 5 10 13 18 16 12 1 6 7 7 8 7 8 10 8 8 6 6 9 8 12 13 11 15 18 17 13 7 6 6 4 8 9 4 16 7 5 4 3 9 13 15
45 34 10 6 3 15 18 10 2 3 4 5 5 6 2 5 7 5 6 6 6 4 7 12 14 14 12 16 9 2 7 4 6 4 9 6 10 6 17 28 34 15 17 15 16
46 19 7 6 2 12 15 3 3 10 12 6 3 2 4 6 10 13 3 5 7 8 5 6 7 3 5 4 2 6 3 4 3 3 6 13 4 5 17 23 26 35 29 13 15
45 21 6 3 2 8 4 2 5 4 6 7 9 5 6 10 11 6 3 8 6 7 2 3 3 6 6 4 4 5 2 9 3 4 2 4 6 4 19 23 21 25 31 30 27
28 14 7 2 5 5 2 5 4 6 6 8 3 4 6 11 11 2 7 6 2 4 6 3 3 3 8 4 4 6 1 4 3 3 5 5 3 4 12 15 15 15 17 18 20
10 5 3 7 6 2 3 6 11 7 6 5 6 6 8 9 11 12 5 11 7 3 6 3 4 3 5 3 3 6 2 6 5 2 4 3 2 4 4 7 10 10 12 12 12
13 3 9 9 2 3 2 9 3 7 4 2 5 5 6 8 8 9 13 10 7 5 3 4 3 1 5 11 7 3 4 5 4 2 2 3 5 8 9 10 10 10 9 10 13
6 4 11 11 3 4 7 12 10 11 10 4 5 6 7 6 6 4 8 10 7 2 2 2 3 2 5 5 4 3 2 5 7 4 5 2 5 8 9 7 7 8 7 6 7
3 4 4 4 6 7 9 6 10 12 13 12 13 4 7 8 7 7 9 9 5 4 7 6 4 6 6 6 4 3 5 5 7 4 4 6 9 6 7 8 9 8 11 12 9
3 3 4 5 7 14 9 10 15 12 11 11 8 8 8 7 6 10 10 10 11 11 7 6 6 5 7 8 11 9 11 12 9 9 8 12 14 9 15 12 13 16 16 16 15
4 4 5 10 9 9 7 9 16 15 6 7 8 11 10 6 5 4 7 6 3 3 5 4 1 4 5 8 11 14 11 8 8 8 9 10 9 11 11 12 8 12 14 14 12
12 12 3 5 7 9 8 13 18 17 7 7 10 11 10 10 8 4 5 7 8 6 7 8 6 4 5 8 9 8 6 7 3 5 5 4 3 11 14 11 8 8 12 8 10
Wind_Direction
1 357 353 344 336 329 322 308 300 297 297 293 282 278 281 291 296 289 247 227 221 205 217 205 204 244 260 269 270 264 316 273 276 279 294 328 333 281 71 31 63 97 146 157 153
359 352 348 343 335 326 319 309 294 285 285 290 283 276 287 302 304 260 244 240 239 207 206 217 204 226 242 258 257 174 200 242 259 283 315 330 6 335 26 69 73 101 62 150 158
357 350 344 338 333 323 315 310 294 280 274 280 277 269 287 319 302 247 236 203 216 211 215 211 227 202 222 240 250 242 234 254 271 279 287 325 338 336 355 346 69 171 84 44 11
357 349 342 335 329 322 313 309 292 274 260 260 263 250 268 353 37 293 166 185 212 198 208 264 276 261 239 250 252 233 249 241 262 273 299 315 329 329 316 288 83 93 98 78 354
2 353 344 336 330 323 314 309 293 268 251 244 235 209 159 219 248 177 159 169 169 168 221 232 253 239 240 237 264 241 249 252 264 280 284 305 292 275 296 305 101 119 118 127 191
11 2 351 341 334 327 320 316 308 269 244 237 221 187 256 254 189 170 168 167 177 182 235 248 239 222 244 250 268 260 259 248 265 275 289 263 276 277 284 285 128 127 140 153 179
15 8 357 347 340 333 331 333 336 267 215 213 190 159 265 246 178 167 171 185 183 197 233 245 247 310 328 330 278 308 294 308 301 277 267 294 299 253 253 267 269 146 169 168 185
14 9 0 351 345 344 5 12 21 116 182 181 168 125 256 252 222 169 178 192 211 228 236 265 304 312 332 303 321 317 310 293 275 261 258 195 252 252 265 240 256 208 181 197 206
12 10 9 7 8 16 36 49 51 86 154 167 157 199 265 242 207 201 175 203 211 235 250 270 32 331 333 295 307 285 257 260 271 249 246 198 235 241 253 240 237 236 188 171 99
10 9 10 6 7 7 9 349 30 122 132 284 267 266 263 233 195 221 201 201 218 211 277 272 69 238 295 277 247 267 274 275 255 274 323 299 214 230 234 258 241 233 194 106 97
6 4 2 359 351 345 333 330 306 252 225 215 189 241 286 186 130 193 210 213 247 202 212 259 206 234 245 234 241 256 271 279 286 310 2 310 290 253 229 241 257 230 148 123 111
3 359 351 345 335 319 313 239 16 285 294 238 243 252 255 267 180 212 207 195 209 245 205 261 250 237 254 268 272 280 295 296 305 335 321 314 304 269 237 238 224 161 127 130 120
359 357 348 338 323 308 276 337 330 342 286 282 226 233 231 213 248 227 177 191 214 237 241 233 251 246 240 251 266 258 267 298 295 284 297 311 294 294 273 288 197 152 133 131 128
354 353 349 336 321 323 8 353 353 17 322 254 178 226 118 205 241 232 185 168 210 246 248 232 249 254 258 268 265 242 244 266 288 298 255 228 278 296 280 229 155 118 114 131 129
350 350 340 333 312 321 342 339 338 354 331 143 162 115 204 201 130 195 206 180 210 245 232 255 264 275 282 270 277 262 246 280 268 295 313 286 313 280 280 267 194 164 147 133 125
346 347 327 332 314 308 331 323 310 355 248 167 140 187 195 219 244 149 173 214 241 234 253 262 276 280 283 290 294 295 328 292 278 231 259 282 242 281 319 340 335 246 129 131 129
343 342 306 281 257 348 337 325 358 225 306 139 166 143 270 284 218 212 202 201 201 237 246 261 262 265 292 262 306 346 56 344 334 327 258 10 338 66 356 353 347 201 165 145 132
342 347 331 270 294 343 329 6 256 287 341 78 62 5 247 270 288 290 249 242 260 245 242 230 283 19 26 65 1 331 149 173 220 306 313 338 256 347 10 360 6 27 7 108 115
342 351 278 257 30 351 43 287 245 354 16 8 349 298 269 266 241 239 301 288 248 256 173 360 233 1 11 77 65 327 3 158 154 178 206 273 303 15 9 7 9 18 23 346 37
340 330 305 51 345 331 50 256 295 292 47 8 329 324 322 317 334 323 209 263 334 74 88 24 357 348 340 11 212 215 66 26 15 160 255 274 255 290 24 29 13 33 37 3 355
345 329 120 342 313 66 214 251 297 43 64 11 357 336 336 328 332 323 313 315 31 67 82 57 119 334 358 271 338 342 81 73 113 155 252 324 257 135 118 71 78 52 35 27 351
338 320 328 336 2 219 221 305 276 328 28 315 200 259 283 298 300 311 307 309 41 34 5 44 110 136 267 304 316 61 102 113 120 174 82 176 262 156 168 157 125 120 92 14 346
319 272 326 8 330 329 344 332 331 336 345 344 279 330 351 321 323 279 310 307 122 64 86 349 317 3 324 326 30 68 76 91 109 110 190 155 264 191 174 160 147 134 107 74 331
294 308 343 354 63 13 355 311 335 336 319 319 314 352 308 295 293 281 286 294 197 112 168 118 168 173 198 233 309 211 228 217 139 128 208 219 250 221 221 180 179 168 161 164 181
239 344 37 320 337 324 308 288 294 297 291 297 311 275 243 268 286 283 286 284 275 165 158 136 194 225 257 261 264 255 243 213 198 195 176 234 239 240 201 198 182 181 185 190 191
348 360 349 302 293 317 321 303 294 296 318 344 323 328 334 322 336 335 6 20 292 282 151 152 207 249 266 279 284 278 279 282 285 269 241 244 256 236 217 166 156 170 195 210 187
355 344 313 283 297 293 282 308 319 317 314 301 327 332 317 312 1 312 276 268 263 267 210 166 168 208 247 257 279 290 277 291 329 297 27 346 347 67 66 79 97 74 72 81 61